Location: ????????
(60.4333°N, 46.4710°E)
Time: 17:54:25
(UTC+00:00)

COSMOS 2428 - Pass Details

Date: 25 November 2020
Orbit: 848 x 855 km, 70.9° (Epoch: 17 January)

Event Time Altitude Azimuth Distance (km) Brightness Sun altitude
Rises 15:17:01 0° 235° (SW) 3,424 6.8 -22.5°
Reaches altitude 10° 15:19:30 10° 239° (WSW) 2,490 6.0 -22.8°
Maximum altitude 15:25:10 61° 320° (NW) 974 3.1 -23.5°
Enters shadow 15:27:44 32° 27° (NNE) 1,428 3.6 -23.8°
